Lake Travis Weather Center

Moon Phase Calendar



Lake Travis Water Level
Online Cameras

 


      

Current Conditions in Lago Vista
7/22/2024 7:26:38 PM

79°F
Feels Like 79
Clouds
Humidity
84%
Pressure
29.91"
Wind
1 mph (ESE)
Dew Point
73°F
UV Index
1/10 (Low)
Visibility
6 mi

Hourly Forecast

Date & Time Mon, Jul 22
7:00 PM
Mon, Jul 22
8:00 PM
Mon, Jul 22
9:00 PM
Mon, Jul 22
10:00 PM
Mon, Jul 22
11:00 PM
Tue, Jul 23
12:00 AM
Tue, Jul 23
1:00 AM
Tue, Jul 23
2:00 AM
Tue, Jul 23
3:00 AM
Tue, Jul 23
4:00 AM
Tue, Jul 23
5:00 AM
Tue, Jul 23
6:00 AM
Tue, Jul 23
7:00 AM
Tue, Jul 23
8:00 AM
Tue, Jul 23
9:00 AM
Tue, Jul 23
10:00 AM
Tue, Jul 23
11:00 AM
Tue, Jul 23
12:00 PM
Tue, Jul 23
1:00 PM
Tue, Jul 23
2:00 PM
Tue, Jul 23
3:00 PM
Tue, Jul 23
4:00 PM
Tue, Jul 23
5:00 PM
Tue, Jul 23
6:00 PM
Tue, Jul 23
7:00 PM
Tue, Jul 23
8:00 PM
Tue, Jul 23
9:00 PM
Tue, Jul 23
10:00 PM
Tue, Jul 23
11:00 PM
Wed, Jul 24
12:00 AM
Wed, Jul 24
1:00 AM
Wed, Jul 24
2:00 AM
Wed, Jul 24
3:00 AM
Wed, Jul 24
4:00 AM
Wed, Jul 24
5:00 AM
Wed, Jul 24
6:00 AM
Wed, Jul 24
7:00 AM
Wed, Jul 24
8:00 AM
Wed, Jul 24
9:00 AM
Wed, Jul 24
10:00 AM
Wed, Jul 24
11:00 AM
Wed, Jul 24
12:00 PM
Wed, Jul 24
1:00 PM
Wed, Jul 24
2:00 PM
Wed, Jul 24
3:00 PM
Wed, Jul 24
4:00 PM
Wed, Jul 24
5:00 PM
Wed, Jul 24
6:00 PM
Condition
Rain

Clouds

Clouds

Rain

Clouds

Rain

Rain

Rain

Clouds

Clouds

Clouds

Rain

Rain

Rain

Rain

Rain

Rain

Rain

Rain

Rain

Clouds

Clouds

Clouds

Clouds

Clouds

Clouds

Rain

Clouds

Rain

Clouds

Clouds

Clouds

Clouds

Clouds

Clouds

Clouds

Clouds

Clouds

Clouds

Clouds

Clouds

Rain

Rain

Clouds

Clouds

Clouds

Clouds

Clouds
Temperature 79°F77°F76°F74°F72°F70°F69°F70°F71°F71°F72°F71°F71°F71°F71°F71°F71°F73°F75°F77°F82°F84°F85°F85°F84°F80°F77°F76°F74°F74°F73°F72°F72°F73°F73°F74°F74°F75°F76°F78°F83°F86°F88°F89°F91°F90°F90°F89°F
Feels Like 79°F79°F77°F75°F73°F71°F71°F71°F72°F72°F73°F72°F72°F72°F72°F72°F72°F75°F76°F78°F86°F89°F88°F88°F87°F83°F78°F77°F76°F75°F75°F74°F74°F75°F75°F75°F75°F76°F77°F79°F87°F90°F92°F93°F94°F93°F92°F91°F
Cloudiness 95%96%97%94%96%97%97%100%100%100%100%100%100%100%100%100%100%100%100%100%91%80%85%88%89%51%32%24%20%17%16%39%46%61%70%74%78%97%100%100%87%75%69%16%20%44%60%59%
Visibility 6 mi6 mi6 mi6 mi6 mi3 mi6 mi6 mi6 mi6 mi6 mi6 mi6 mi6 mi6 mi6 mi6 mi6 mi6 mi6 mi6 mi6 mi6 mi6 mi6 mi6 mi6 mi6 mi6 mi6 mi6 mi6 mi6 mi6 mi6 mi6 mi6 mi6 mi6 mi6 mi6 mi6 mi6 mi6 mi6 mi6 mi6 mi6 mi
Precipitation 95%80%80%100%80%100%100%100%80%76%85%100%100%100%100%100%100%100%100%49%17%0%0%0%0%2%28%17%35%27%24%0%0%0%0%0%0%0%0%0%0%20%27%13%21%14%10%6%
Humidity 84%85%87%89%91%93%97%93%90%89%89%90%91%92%94%96%95%91%87%82%69%61%57%57%60%70%75%83%89%92%97%98%98%96%94%93%91%84%82%77%66%58%53%48%46%46%45%45%
Dew Point 73°F73°F72°F70°F69°F68°F68°F67°F67°F68°F68°F68°F68°F69°F69°F69°F69°F70°F71°F70°F70°F69°F68°F68°F68°F69°F69°F70°F70°F71°F72°F71°F71°F72°F71°F71°F71°F70°F70°F70°F70°F69°F68°F67°F67°F66°F66°F65°F
Pressure 29.91"29.91"29.94"29.97"29.97"30.03"30"29.97"29.97"29.97"29.97"29.97"30"30.03"30.06"30.06"30.06"30.03"30.03"30"30"29.97"29.97"29.97"29.97"29.97"30"30"30.03"30.03"30.03"30.03"30"30"30.03"30.03"30.03"30.06"30.06"30.06"30.06"30.03"30.03"30"30"30"30"29.97"
Wind Speed 10.7 mph8.2 mph7.4 mph9.4 mph6.6 mph4.3 mph1.3 mph4.2 mph1.5 mph2.1 mph2.2 mph2.7 mph2.5 mph3.9 mph4 mph3.7 mph4.1 mph5.1 mph5 mph3.1 mph3.2 mph3.8 mph4.1 mph4.2 mph5 mph5.4 mph6.4 mph6 mph5.8 mph6.7 mph5.9 mph4.4 mph5 mph4.9 mph2.6 mph1.7 mph2 mph1.3 mph2.3 mph3.4 mph4 mph5.9 mph7.8 mph8.1 mph10.2 mph11 mph10.8 mph10.6 mph
Wind
Direction
17°
NNE
43°
NE
39°
NE
35°
NE
324°
NW
189°
S
175°
S

N
94°
E
274°
W
292°
WNW
290°
WNW
263°
W
285°
WNW
300°
WNW
314°
NW
320°
NW
297°
WNW
313°
NW
350°
N
18°
NNE
48°
NE
77°
ENE
95°
E
100°
E
90°
E
96°
E
114°
ESE
125°
SE
136°
SE
147°
SSE
160°
SSE
167°
SSE
170°
S
200°
SSW
224°
SW
225°
SW
256°
WSW
329°
NNW

N
39°
NE
60°
ENE
83°
E
80°
E
84°
E
91°
E
90°
E
96°
E

Daily Forecast

Date High Low Precip. Humidity
Today
Jul 22

Rain
85 °F
72 °F
100%
73%
Tuesday
Jul 23

Rain
85 °F
69 °F
100%
87%
Wednesday
Jul 24

Rain
91 °F
72 °F
27%
53%
Thursday
Jul 25

Rain
90 °F
72 °F
37%
46%
Friday
Jul 26

Rain
88 °F
72 °F
38%
48%
Saturday
Jul 27

Rain
84 °F
70 °F
38%
60%
Sunday
Jul 28

Rain
88 °F
73 °F
100%
62%
Monday
Jul 29

Clouds
95 °F
75 °F
0%
48%
Tuesday
Jul 30

Clouds
95 °F
74 °F
0%
44%
Wednesday
Jul 31

Clear
96 °F
74 °F
0%
44%
Thursday
Aug 1

Clouds
97 °F
74 °F
0%
44%
Friday
Aug 2

Clear
97 °F
74 °F
0%
40%
Saturday
Aug 3

Clear
99 °F
74 °F
0%
31%
Sunday
Aug 4

Clouds
99 °F
74 °F
0%
36%
Monday
Aug 5

Clear
104 °F
76 °F
0%
30%
Tuesday
Aug 6

Clear
105 °F
78 °F
0%
31%

Temperature 8-14 Day Outlook



Precipitation 8-14 Day Outlook






About Us
Contact Us
Site Map
Search Site
Advertise With Us
   
Travis.USLakes.info
THE LAKE TRAVIS WEBSITE

Copyright 2024, Lakes Online
Privacy    |    Legal